Weather History for Shenandoah, IA

Change the Weather History Date:

Thursday, October 25, 2012

  Actual Average Record
Temperature  
Mean Temperature 46 °F -  
Max Temperature 53 °F 62 °F 79 °F (1952)
Min Temperature 39 °F 40 °F 23 °F (2005)
Degree Days  
Heating Degree Days 19    
Moisture  
Dew Point 37 °F    
Average Humidity 74    
Maximum Humidity 87    
Minimum Humidity 61    
Precipitation  
Precipitation 0.19 in - - ()
Sea Level Pressure  
Sea Level Pressure 30.00 in    
Wind  
Wind Speed 15 mph (NNW)    
Max Wind Speed 25 mph    
Max Gust Speed 37 mph    
Visibility 8 miles    
Events Rain    
Averages and records for this station are not official NWS values.
T = Trace of Precipitation, MM = Missing Value Source: NWS Daily Summary

Daily Weather History Graph

Daily Weather History Graph

Search for Another Location

Airport:

Trip Planner

Search our weather history database for the weather conditions in past years. The results will help you decide how hot, cold, wet, or windy it might be!

Date:

Astronomy

Oct. 25, 2012 Rise Set
Actual Time 7:44 AM CDT 6:26 PM CDT
Civil Twilight 7:16 AM CDT 6:54 PM CDT
Nautical Twilight 6:44 AM CDT 7:26 PM CDT
Astronomical Twilight 6:12 AM CDT 7:57 PM CDT
Moon 4:13 PM CDT (10/25) 3:40 AM CDT (10/25)
Length of Visible Light 11h 37m
Length of Day
10h 41m
Waxing Gibbous, 84% of the Moon is Illuminated
Oct 25
Waxing Gibbous
Oct 29
Full
Nov 6
Last Quarter
Nov 13
New
Nov 20
First Quarter

Hourly Weather History & Observations

Time (CDT) Temp. Windchill Dew Point Humidity Pressure Visibility Wind Dir Wind Speed Gust Speed Precip Events Conditions
12:15 AM 53.6 °F - 48.2 °F 82% 29.72 in 7.0 mi North 9.2 mph 18.4 mph N/A   Light Drizzle
12:35 AM 53.6 °F - 48.2 °F 82% 29.70 in 5.0 mi NNE 11.5 mph 16.1 mph N/A Rain Light Rain
12:55 AM 53.6 °F - 48.2 °F 82% 29.70 in 5.0 mi North 10.4 mph - N/A Rain Light Rain
1:15 AM 53.6 °F - 48.2 °F 82% 29.68 in 5.0 mi NNE 9.2 mph - N/A   Overcast
1:35 AM 53.6 °F - 48.2 °F 82% 29.67 in 5.0 mi North 8.1 mph - N/A   Overcast
1:55 AM 53.6 °F - 48.2 °F 82% 29.64 in 5.0 mi NE 11.5 mph - N/A   Overcast
2:35 AM 53.6 °F - 48.2 °F 82% 29.69 in 7.0 mi NW 10.4 mph 21.9 mph 0.01 in Rain Rain
2:55 AM 51.8 °F - 46.4 °F 82% 29.67 in 7.0 mi North 13.8 mph 19.6 mph 0.05 in Rain Rain
3:15 AM 51.8 °F - 46.4 °F 82% 29.75 in 7.0 mi NW 18.4 mph 25.3 mph 0.08 in Rain Light Rain
3:35 AM 48.2 °F - 44.6 °F 87% 29.70 in 10.0 mi North 15.0 mph - 0.10 in Rain Light Rain
3:55 AM 48.2 °F - 42.8 °F 82% 29.70 in 10.0 mi North 11.5 mph 23.0 mph 0.10 in Rain Light Rain
4:15 AM 48.2 °F - 42.8 °F 82% 29.70 in 10.0 mi North 16.1 mph 24.2 mph N/A   Overcast
4:35 AM 48.2 °F - 42.8 °F 82% 29.71 in 10.0 mi NNE 12.7 mph 19.6 mph N/A Rain Light Rain
4:55 AM 46.4 °F 40.1 °F 42.8 °F 87% 29.72 in 7.0 mi North 15.0 mph 23.0 mph N/A   Drizzle
5:15 AM 46.4 °F 40.4 °F 42.8 °F 87% 29.75 in 10.0 mi NNW 13.8 mph 23.0 mph 0.01 in Rain Light Rain
5:35 AM 46.4 °F 39.8 °F 41.0 °F 81% 29.75 in 10.0 mi NNW 16.1 mph 21.9 mph 0.01 in   Light Drizzle
5:55 AM 44.6 °F 37.4 °F 39.2 °F 81% 29.75 in 7.0 mi NNW 16.1 mph 24.2 mph 0.01 in Rain Light Rain
6:35 AM 44.6 °F 37.2 °F 37.4 °F 76% 29.79 in 5.0 mi North 17.3 mph 25.3 mph 0.01 in Rain Light Rain
6:55 AM 44.6 °F 36.4 °F 37.4 °F 76% 29.81 in 10.0 mi North 20.7 mph 29.9 mph 0.02 in Rain Rain
7:15 AM 44.6 °F 37.4 °F 37.4 °F 76% 29.81 in 10.0 mi North 16.1 mph 26.5 mph N/A   Drizzle
7:35 AM 42.8 °F 34.8 °F 37.4 °F 81% 29.82 in 10.0 mi NNW 17.3 mph 23.0 mph N/A Rain Rain
7:55 AM 42.8 °F 34.0 °F 37.4 °F 81% 29.82 in 10.0 mi North 20.7 mph 26.5 mph 0.01 in   Light Drizzle
8:35 AM 42.8 °F 35.1 °F 37.4 °F 81% 29.87 in 10.0 mi North 16.1 mph 25.3 mph N/A   Overcast
8:55 AM 44.6 °F 37.4 °F 37.4 °F 76% 29.89 in 3.0 mi NNW 16.1 mph 26.5 mph N/A   Haze
9:15 AM 42.8 °F 34.0 °F 37.4 °F 81% 29.91 in 3.0 mi NNW 20.7 mph 28.8 mph N/A Rain Light Rain
9:35 AM 41.0 °F 31.6 °F 35.6 °F 81% 29.93 in 5.0 mi NNW 20.7 mph 28.8 mph N/A   Haze
9:55 AM 39.2 °F 29.0 °F 35.6 °F 87% 29.95 in 4.0 mi NNW 21.9 mph 32.2 mph N/A   Haze
10:15 AM 39.2 °F 29.6 °F 35.6 °F 87% 29.96 in 5.0 mi NNW 19.6 mph 31.1 mph N/A   Haze
10:35 AM 41.0 °F 31.4 °F 35.6 °F 81% 29.97 in 7.0 mi North 21.9 mph 28.8 mph N/A   Overcast
10:55 AM 42.8 °F 34.3 °F 35.6 °F 76% 29.99 in 7.0 mi NNW 19.6 mph 27.6 mph N/A   Overcast
11:15 AM 42.8 °F 34.8 °F 35.6 °F 76% 30.00 in 3.0 mi NNW 17.3 mph 25.3 mph N/A   Haze
11:35 AM 42.8 °F 33.5 °F 35.6 °F 76% 30.01 in 3.0 mi NNW 23.0 mph 29.9 mph N/A   Haze
11:55 AM 42.8 °F 34.5 °F 37.4 °F 81% 30.02 in 7.0 mi NNW 18.4 mph 29.9 mph N/A   Overcast
12:15 PM 44.6 °F 35.5 °F 37.4 °F 76% 30.03 in 10.0 mi North 25.3 mph 36.8 mph N/A   Overcast
12:35 PM 44.6 °F 36.1 °F 37.4 °F 76% 30.04 in 10.0 mi NNW 21.9 mph 33.4 mph N/A   Overcast
12:55 PM 44.6 °F 36.9 °F 35.6 °F 71% 30.05 in 10.0 mi NNW 18.4 mph 33.4 mph N/A   Mostly Cloudy
1:15 PM 44.6 °F 35.5 °F 35.6 °F 71% 30.06 in 10.0 mi NNW 25.3 mph 33.4 mph N/A   Mostly Cloudy
1:35 PM 44.6 °F 36.4 °F 35.6 °F 71% 30.07 in 10.0 mi NNW 20.7 mph 29.9 mph N/A   Mostly Cloudy
1:55 PM 44.6 °F 36.4 °F 35.6 °F 71% 30.08 in 10.0 mi NNW 20.7 mph 32.2 mph N/A   Scattered Clouds
2:15 PM 44.6 °F 35.9 °F 35.6 °F 71% 30.08 in 10.0 mi NNW 23.0 mph 28.8 mph N/A   Mostly Cloudy
2:35 PM 46.4 °F 40.1 °F 37.4 °F 71% 30.08 in 10.0 mi NNW 15.0 mph 28.8 mph N/A   Mostly Cloudy
2:55 PM 46.4 °F 39.0 °F 35.6 °F 66% 30.09 in 10.0 mi North 19.6 mph 27.6 mph N/A   Mostly Cloudy
3:15 PM 46.4 °F 39.2 °F 35.6 °F 66% 30.10 in 10.0 mi NNW 18.4 mph 29.9 mph N/A   Overcast
3:35 PM 46.4 °F 39.2 °F 35.6 °F 66% 30.12 in 10.0 mi NNW 18.4 mph 24.2 mph N/A   Overcast
3:55 PM 44.6 °F 36.4 °F 33.8 °F 66% 30.14 in 10.0 mi NNW 20.7 mph 24.2 mph N/A   Overcast
4:15 PM 44.6 °F 37.2 °F 33.8 °F 66% 30.16 in 10.0 mi NNW 17.3 mph 26.5 mph N/A   Overcast
4:35 PM 44.6 °F 37.2 °F 33.8 °F 66% 30.17 in 10.0 mi NNW 17.3 mph 23.0 mph N/A   Overcast
4:55 PM 42.8 °F 34.8 °F 32.0 °F 66% 30.18 in 10.0 mi NNW 17.3 mph 21.9 mph N/A   Overcast
5:15 PM 42.8 °F 35.4 °F 32.0 °F 66% 30.19 in 10.0 mi NNW 15.0 mph 19.6 mph N/A   Overcast
5:35 PM 42.8 °F 35.4 °F 30.2 °F 61% 30.20 in 10.0 mi North 15.0 mph 24.2 mph N/A   Overcast
5:55 PM 42.8 °F 36.6 °F 30.2 °F 61% 30.21 in 10.0 mi NNW 11.5 mph 24.2 mph N/A   Overcast
6:15 PM 42.8 °F 35.8 °F 30.2 °F 61% 30.23 in 10.0 mi NNW 13.8 mph 21.9 mph N/A   Overcast
6:35 PM 41.0 °F 33.1 °F 30.2 °F 65% 30.24 in 10.0 mi NNW 15.0 mph 26.5 mph N/A   Overcast
6:55 PM 41.0 °F 32.2 °F 30.2 °F 65% 30.25 in 10.0 mi North 18.4 mph 25.3 mph N/A   Overcast
7:15 PM 41.0 °F 33.1 °F 30.2 °F 65% 30.27 in 10.0 mi NNW 15.0 mph 20.7 mph N/A   Overcast
7:35 PM 41.0 °F 33.1 °F 30.2 °F 65% 30.28 in 10.0 mi NNW 15.0 mph 19.6 mph N/A   Overcast
7:55 PM 41.0 °F 32.8 °F 28.4 °F 61% 30.28 in 10.0 mi North 16.1 mph 27.6 mph N/A   Overcast
8:15 PM 41.0 °F 33.1 °F 28.4 °F 61% 30.29 in 10.0 mi North 15.0 mph 20.7 mph N/A   Overcast
8:35 PM 41.0 °F 32.2 °F 28.4 °F 61% 30.30 in 10.0 mi NNW 18.4 mph 25.3 mph N/A   Overcast
8:55 PM 41.0 °F 33.1 °F 28.4 °F 61% 30.30 in 10.0 mi North 15.0 mph 20.7 mph N/A   Overcast
9:15 PM 41.0 °F 32.5 °F 28.4 °F 61% 30.31 in 10.0 mi North 17.3 mph 21.9 mph N/A   Overcast
9:35 PM 39.2 °F 31.2 °F 28.4 °F 65% 30.32 in 10.0 mi NNW 13.8 mph 20.7 mph N/A   Overcast
9:55 PM 39.2 °F 30.5 °F 28.4 °F 65% 30.33 in 10.0 mi NNW 16.1 mph 23.0 mph N/A   Overcast
10:15 PM 39.2 °F 29.6 °F 28.4 °F 65% 30.34 in 10.0 mi North 19.6 mph 25.3 mph N/A   Overcast
10:55 PM 39.2 °F 29.8 °F 26.6 °F 61% 30.35 in 10.0 mi North 18.4 mph 24.2 mph N/A   Overcast
11:15 PM 39.2 °F 30.5 °F 28.4 °F 65% 30.35 in 10.0 mi North 16.1 mph - N/A   Overcast